LOT3859 EPWR-EPWA

Flight info

Callsign LOT3859
Flight time 0h 35m
Altitude 31000
Route LUNUK DCT OKENO DCT GOGUS DCT AGAVA
Aircraft E195/M-SDE3GILORVW/S

Departure

Time 2026-05-06 18:39
Airport Copernicus Wrocław Airport (EPWR)

Arrival

Time 2026-05-06 19:14
Airport Warsaw Chopin Airport (EPWA)
Time Latitude Longitude Altitude Speed Heading
2026-05-06 18:10 51.10871 16.87992 402 ft 0 kts 26°
2026-05-06 18:20 51.10854 16.87979 398 ft 4 kts 26°
2026-05-06 18:20 51.10833 16.87963 399 ft 3 kts 26°
2026-05-06 18:21 51.10811 16.87952 401 ft 4 kts 338°
2026-05-06 18:21 51.10793 16.87978 402 ft 4 kts 296°
2026-05-06 18:21 51.10791 16.87986 402 ft 0 kts 296°
2026-05-06 18:32 51.10791 16.87985 402 ft 1 kts 295°
2026-05-06 18:32 51.10801 16.87954 399 ft 7 kts 296°
2026-05-06 18:32 51.10824 16.87876 402 ft 9 kts 297°
2026-05-06 18:32 51.10858 16.87768 399 ft 13 kts 295°
2026-05-06 18:33 51.10900 16.87631 400 ft 14 kts 295°
2026-05-06 18:33 51.10942 16.87494 399 ft 12 kts 297°
2026-05-06 18:33 51.10927 16.87408 401 ft 9 kts 215°
2026-05-06 18:33 51.10860 16.87352 402 ft 14 kts 206°
2026-05-06 18:34 51.10754 16.87270 401 ft 18 kts 206°
2026-05-06 18:34 51.10665 16.87293 401 ft 15 kts 126°
2026-05-06 18:34 51.10607 16.87477 401 ft 23 kts 117°
2026-05-06 18:34 51.10531 16.87725 400 ft 25 kts 117°
2026-05-06 18:35 51.10453 16.87966 402 ft 24 kts 116°
2026-05-06 18:35 51.10380 16.88213 404 ft 27 kts 116°
2026-05-06 18:35 51.10289 16.88511 402 ft 33 kts 115°
2026-05-06 18:35 51.10188 16.88841 400 ft 33 kts 116°
2026-05-06 18:36 51.10088 16.89166 400 ft 32 kts 116°
2026-05-06 18:36 51.09995 16.89465 403 ft 28 kts 116°
2026-05-06 18:36 51.09970 16.89603 403 ft 4 kts 133°
2026-05-06 18:36 51.09957 16.89587 398 ft 2 kts 251°
2026-05-06 18:37 51.09963 16.89570 403 ft 3 kts 298°
2026-05-06 18:37 51.09974 16.89538 404 ft 7 kts 296°
2026-05-06 18:37 51.09976 16.89531 402 ft 0 kts 295°
2026-05-06 18:38 51.09982 16.89509 404 ft 17 kts 296°
2026-05-06 18:38 51.10159 16.88931 401 ft 98 kts 296°
2026-05-06 18:38 51.10564 16.87601 416 ft 165 kts 298°
2026-05-06 18:38 51.11192 16.85856 1001 ft 195 kts 301°
2026-05-06 18:39 51.11968 16.83928 1806 ft 206 kts 301°
2026-05-06 18:39 51.12565 16.81838 2215 ft 212 kts 291°
2026-05-06 18:39 51.13108 16.79575 2916 ft 225 kts 292°
2026-05-06 18:40 51.14491 16.74706 4293 ft 261 kts 292°
2026-05-06 18:40 51.15295 16.72038 5094 ft 271 kts 293°
2026-05-06 18:40 51.16122 16.69321 6095 ft 274 kts 292°
2026-05-06 18:40 51.16956 16.66573 7044 ft 276 kts 291°
2026-05-06 18:41 51.17796 16.63801 7914 ft 280 kts 291°
2026-05-06 18:41 51.18679 16.60993 8702 ft 290 kts 296°
2026-05-06 18:41 51.20090 16.58618 8844 ft 305 kts 324°
2026-05-06 18:41 51.22012 16.57182 8843 ft 306 kts 338°
2026-05-06 18:42 51.24094 16.56798 8996 ft 309 kts
2026-05-06 18:42 51.26034 16.58241 9794 ft 312 kts 42°
2026-05-06 18:42 51.27346 16.61042 10260 ft 323 kts 71°
2026-05-06 18:42 51.27773 16.63335 10638 ft 327 kts 81°
2026-05-06 18:43 51.28146 16.66961 11365 ft 333 kts 85°
2026-05-06 18:43 51.28544 16.70637 12212 ft 339 kts 82°
2026-05-06 18:43 51.29045 16.74348 13085 ft 344 kts 80°
2026-05-06 18:43 51.29602 16.78097 13965 ft 349 kts 79°
2026-05-06 18:44 51.30188 16.81905 14800 ft 355 kts 79°
2026-05-06 18:44 51.30785 16.85754 15655 ft 360 kts 79°
2026-05-06 18:44 51.31389 16.89671 16454 ft 365 kts 79°
2026-05-06 18:44 51.32009 16.93647 17220 ft 371 kts 79°
2026-05-06 18:45 51.32621 16.97636 17980 ft 377 kts 79°
2026-05-06 18:45 51.33197 17.01770 18701 ft 381 kts 81°
2026-05-06 18:45 51.33758 17.05942 19409 ft 386 kts 81°
2026-05-06 18:45 51.34339 17.10166 20096 ft 391 kts 80°
2026-05-06 18:46 51.34953 17.14431 20750 ft 396 kts 81°
2026-05-06 18:46 51.35522 17.18765 21369 ft 400 kts 82°
2026-05-06 18:46 51.36096 17.23147 21959 ft 405 kts 82°
2026-05-06 18:46 51.36645 17.27588 22553 ft 409 kts 82°
2026-05-06 18:47 51.37192 17.32076 23155 ft 413 kts 83°
2026-05-06 18:47 51.37737 17.36562 23726 ft 417 kts 83°
2026-05-06 18:47 51.38283 17.41128 24279 ft 420 kts 83°
2026-05-06 18:47 51.38830 17.45732 24838 ft 423 kts 83°
2026-05-06 18:48 51.39381 17.50383 25375 ft 426 kts 83°
2026-05-06 18:48 51.39913 17.55068 25908 ft 429 kts 83°
2026-05-06 18:48 51.40440 17.59798 26405 ft 432 kts 84°
2026-05-06 18:48 51.40963 17.64539 26886 ft 436 kts 84°
2026-05-06 18:49 51.41493 17.69356 27371 ft 439 kts 84°
2026-05-06 18:49 51.42002 17.74193 27822 ft 442 kts 84°
2026-05-06 18:49 51.42491 17.79066 28275 ft 444 kts 85°
2026-05-06 18:49 51.42973 17.83973 28712 ft 447 kts 85°
2026-05-06 18:50 51.43448 17.88926 29141 ft 450 kts 85°
2026-05-06 18:50 51.43917 17.93910 29551 ft 453 kts 85°
2026-05-06 18:50 51.44380 17.98916 29930 ft 456 kts 85°
2026-05-06 18:50 51.44836 18.03967 30249 ft 459 kts 85°
2026-05-06 18:51 51.45286 18.09045 30553 ft 462 kts 85°
2026-05-06 18:51 51.45728 18.14084 30925 ft 462 kts 85°
2026-05-06 18:51 51.46170 18.19313 30903 ft 473 kts 86°
2026-05-06 18:52 51.46955 18.29943 30771 ft 491 kts 87°
2026-05-06 18:52 51.47754 18.40872 30781 ft 496 kts 86°
2026-05-06 18:53 51.48567 18.51885 30771 ft 497 kts 87°
2026-05-06 18:53 51.49360 18.62844 30764 ft 484 kts 87°
2026-05-06 18:53 51.49979 18.68041 30729 ft 466 kts 78°
2026-05-06 18:54 51.50917 18.72902 30715 ft 446 kts 74°
2026-05-06 18:54 51.51885 18.77532 30720 ft 429 kts 75°
2026-05-06 18:54 51.52807 18.82078 30805 ft 431 kts 75°
2026-05-06 18:55 51.54622 18.91382 30806 ft 438 kts 76°
2026-05-06 18:55 51.55527 18.96078 30386 ft 446 kts 76°
2026-05-06 18:55 51.56443 19.00801 30253 ft 433 kts 76°
2026-05-06 18:55 51.57334 19.05426 29659 ft 438 kts 76°
2026-05-06 18:56 51.58233 19.10103 29162 ft 432 kts 76°
2026-05-06 18:56 51.59102 19.14640 28547 ft 429 kts 76°
2026-05-06 18:56 51.59989 19.19274 27990 ft 424 kts 76°
2026-05-06 18:56 51.60851 19.23786 27468 ft 418 kts 76°
2026-05-06 18:57 51.61685 19.28173 26908 ft 414 kts 76°
2026-05-06 18:57 51.62523 19.32590 26398 ft 409 kts 76°
2026-05-06 18:57 51.63350 19.36963 25852 ft 406 kts 76°
2026-05-06 18:57 51.64165 19.41279 25331 ft 402 kts 76°
2026-05-06 18:58 51.64975 19.45577 24815 ft 399 kts 76°
2026-05-06 18:58 51.65775 19.49835 24290 ft 396 kts 76°
2026-05-06 18:58 51.66567 19.54064 23780 ft 393 kts 76°
2026-05-06 18:58 51.67354 19.58271 23249 ft 391 kts 76°
2026-05-06 18:59 51.68134 19.62455 22752 ft 385 kts 76°
2026-05-06 18:59 51.68898 19.66564 22228 ft 381 kts 76°
2026-05-06 18:59 51.69653 19.70634 21747 ft 377 kts 76°
2026-05-06 18:59 51.70399 19.74667 21242 ft 373 kts 76°
2026-05-06 19:00 51.71136 19.78659 20754 ft 370 kts 76°
2026-05-06 19:00 51.71864 19.82616 20271 ft 367 kts 76°
2026-05-06 19:00 51.72589 19.86553 19790 ft 364 kts 76°
2026-05-06 19:00 51.73293 19.90394 19307 ft 362 kts 76°
2026-05-06 19:01 51.74008 19.94291 18830 ft 360 kts 76°
2026-05-06 19:01 51.74716 19.98144 18480 ft 353 kts 76°
2026-05-06 19:01 51.75421 20.01928 18235 ft 349 kts 76°
2026-05-06 19:01 51.76118 20.05712 17721 ft 352 kts 76°
2026-05-06 19:02 51.76800 20.09444 17290 ft 351 kts 76°
2026-05-06 19:02 51.77493 20.13232 16817 ft 350 kts 76°
2026-05-06 19:02 51.78176 20.16988 16360 ft 348 kts 76°
2026-05-06 19:02 51.78849 20.20721 15894 ft 345 kts 76°
2026-05-06 19:03 51.79514 20.24440 15443 ft 343 kts 76°
2026-05-06 19:03 51.80172 20.28131 14985 ft 340 kts 76°
2026-05-06 19:03 51.80829 20.31791 14536 ft 338 kts 76°
2026-05-06 19:03 51.81486 20.35431 14076 ft 336 kts 76°
2026-05-06 19:04 51.82129 20.39051 13632 ft 335 kts 76°
2026-05-06 19:04 51.82767 20.42661 13161 ft 332 kts 76°
2026-05-06 19:04 51.83398 20.46229 12735 ft 328 kts 76°
2026-05-06 19:04 51.84024 20.49748 12458 ft 320 kts 76°
2026-05-06 19:05 51.84633 20.53192 12103 ft 318 kts 76°
2026-05-06 19:05 51.85241 20.56646 11646 ft 320 kts 76°
2026-05-06 19:05 51.85843 20.60053 11226 ft 318 kts 76°
2026-05-06 19:05 51.86448 20.63499 10784 ft 317 kts 76°
2026-05-06 19:06 51.87048 20.66911 10361 ft 314 kts 76°
2026-05-06 19:06 51.87645 20.70308 9934 ft 313 kts 76°
2026-05-06 19:06 51.88235 20.73688 9485 ft 311 kts 76°
2026-05-06 19:06 51.88823 20.77038 9080 ft 308 kts 76°
2026-05-06 19:07 51.89405 20.80357 8652 ft 305 kts 76°
2026-05-06 19:07 51.89978 20.83654 8234 ft 303 kts 76°
2026-05-06 19:07 51.90550 20.86923 7822 ft 300 kts 76°
2026-05-06 19:07 51.91106 20.90174 7409 ft 299 kts 77°
2026-05-06 19:08 51.91660 20.93413 6999 ft 297 kts 76°
2026-05-06 19:08 51.92210 20.96630 6592 ft 296 kts 76°
2026-05-06 19:08 51.92766 20.99843 6153 ft 296 kts 76°
2026-05-06 19:08 51.93317 21.03026 5657 ft 297 kts 74°
2026-05-06 19:09 51.94167 21.06065 5206 ft 293 kts 61°
2026-05-06 19:09 51.95210 21.08809 4749 ft 279 kts 56°
2026-05-06 19:09 51.96510 21.11011 4347 ft 265 kts 31°
2026-05-06 19:09 51.98186 21.11935 3871 ft 251 kts 358°
2026-05-06 19:10 51.99812 21.11422 3545 ft 229 kts 331°
2026-05-06 19:10 52.01131 21.10143 3370 ft 215 kts 323°
2026-05-06 19:10 52.02438 21.08995 3166 ft 213 kts 330°
2026-05-06 19:10 52.03735 21.07967 2934 ft 201 kts 328°
2026-05-06 19:11 52.04920 21.06886 2675 ft 190 kts 327°
2026-05-06 19:11 52.06063 21.05890 2433 ft 183 kts 328°
2026-05-06 19:11 52.07169 21.04946 2205 ft 176 kts 328°
2026-05-06 19:11 52.08187 21.04054 2018 ft 155 kts 327°
2026-05-06 19:12 52.09093 21.03260 1775 ft 141 kts 327°
2026-05-06 19:12 52.09915 21.02538 1592 ft 129 kts 326°
2026-05-06 19:12 52.10700 21.01851 1431 ft 127 kts 327°
2026-05-06 19:12 52.11478 21.01176 1277 ft 130 kts 328°
2026-05-06 19:13 52.12266 21.00486 1081 ft 129 kts 329°
2026-05-06 19:13 52.13054 20.99775 905 ft 127 kts 331°
2026-05-06 19:13 52.13823 20.99091 716 ft 124 kts 332°
2026-05-06 19:13 52.14570 20.98439 564 ft 123 kts 334°
2026-05-06 19:14 52.15336 20.97779 420 ft 123 kts 333°
2026-05-06 19:14 52.16061 20.97157 340 ft 106 kts 333°
2026-05-06 19:14 52.16572 20.96712 337 ft 60 kts 330°
2026-05-06 19:14 52.16775 20.96550 337 ft 26 kts 342°
2026-05-06 19:15 52.16950 20.96511 333 ft 25 kts
2026-05-06 19:15 52.16983 20.96513 337 ft 0 kts
2026-05-06 19:15 52.16984 20.96513 337 ft 2 kts
2026-05-06 19:16 52.17004 20.96514 332 ft 5 kts
2026-05-06 19:16 52.17052 20.96521 337 ft 9 kts
2026-05-06 19:16 52.17101 20.96604 336 ft 13 kts 62°
2026-05-06 19:16 52.17145 20.96737 336 ft 11 kts 62°
2026-05-06 19:17 52.17147 20.96844 334 ft 10 kts 139°
2026-05-06 19:17 52.17080 20.96907 335 ft 12 kts 151°
2026-05-06 19:17 52.17002 20.96977 335 ft 13 kts 151°
2026-05-06 19:17 52.16926 20.97044 337 ft 11 kts 153°
2026-05-06 19:18 52.16896 20.97099 336 ft 5 kts 95°
2026-05-06 19:18 52.16905 20.97166 335 ft 7 kts 75°
2026-05-06 19:18 52.16913 20.97219 337 ft 0 kts 76°
2026-05-06 19:18 52.16914 20.97222 337 ft 0 kts 76°